Change the Weather History Date:

Monday, February 3, 2014

  Actual Average (KBLI) Record (KBLI)
Temperature  
Mean Temperature 34 °F 40 °F  
Max Temperature 37 °F 47 °F 60 °F (1992)
Min Temperature 30 °F 33 °F 5 °F (1950)
Degree Days  
Heating Degree Days 32 25  
Month to date heating degree days 75  
Cooling Degree Days 0 0  
Month to date cooling degree days 0  
Year to date cooling degree days 0  
Moisture  
Dew Point 12 °F    
Average Humidity 40    
Maximum Humidity 51    
Minimum Humidity 33    
Precipitation  
Precipitation 0.00 in 0.12 in 1.39 in (1967)
Month to date precipitation 0.35  
Year to date precipitation 5.02  
Sea Level Pressure  
Sea Level Pressure 30.15 in    
Wind  
Wind Speed 9 mph (NE)    
Max Wind Speed 16 mph    
Max Gust Speed 34 mph    
Visibility 10 miles    
Events      
T = Trace of Precipitation, MM = Missing Value Source: NWS Daily Summary

Daily Weather History Graph

Daily Weather History Graph

Search for Another Location

Airport or City:

Trip Planner

Search our weather history database for the weather conditions in past years. The results will help you decide how hot, cold, wet, or windy it might be!

Date:

Astronomy

Feb. 03, 2014 Rise Set
Actual Time 7:38 AM PST 5:13 PM PST
Civil Twilight 7:04 AM PST 5:46 PM PST
Nautical Twilight 6:27 AM PST 6:24 PM PST
Astronomical Twilight 5:50 AM PST 7:01 PM PST
Moon 9:17 AM PST (2/3) 10:38 PM PST (2/3)
Length of Visible Light 10h 42m
Length of Day
9h 35m
Waxing Crescent, 20% of the Moon is Illuminated
Feb 3
Waxing Crescent
Feb 6
First Quarter
Feb 14
Full
Feb 22
Last Quarter
Mar 1
New

Hourly Weather History & Observations

Time (PST) Temp. Windchill Dew Point Humidity Pressure Visibility Wind Dir Wind Speed Gust Speed Precip Events Conditions
12:15 AM 33.8 °F 26.4 °F 15.8 °F 48% 30.05 in 10.0 mi ENE 9.2 mph 18.4 mph N/A   Clear
12:35 AM 33.8 °F 27.7 °F 15.8 °F 48% 30.05 in 10.0 mi ENE 6.9 mph 17.3 mph N/A   Clear
12:55 AM 33.8 °F 28.6 °F 15.8 °F 48% 30.06 in 10.0 mi East 5.8 mph - N/A   Clear
1:15 AM 33.8 °F 25.8 °F 15.8 °F 48% 30.06 in 10.0 mi NE 10.4 mph 17.3 mph N/A   Clear
1:35 AM 33.8 °F 27.7 °F 15.8 °F 48% 30.07 in 10.0 mi East 6.9 mph - N/A   Clear
1:55 AM 33.8 °F 25.3 °F 15.8 °F 48% 30.07 in 10.0 mi ENE 11.5 mph 21.9 mph N/A   Clear
2:15 AM 32.0 °F 25.6 °F 15.8 °F 51% 30.07 in 10.0 mi ENE 6.9 mph 20.7 mph N/A   Clear
2:35 AM 32.0 °F 25.6 °F 14.0 °F 48% 30.08 in 10.0 mi NE 6.9 mph 18.4 mph N/A   Scattered Clouds
2:55 AM 32.0 °F 25.6 °F 14.0 °F 48% 30.08 in 10.0 mi NE 6.9 mph 19.6 mph N/A   Overcast
3:15 AM 32.0 °F 24.8 °F 14.0 °F 48% 30.08 in 10.0 mi NE 8.1 mph 18.4 mph N/A   Overcast
3:35 AM 32.0 °F 23.0 °F 14.0 °F 48% 30.08 in 10.0 mi NE 11.5 mph 21.9 mph N/A   Mostly Cloudy
3:55 AM 32.0 °F 23.0 °F 12.2 °F 44% 30.09 in 10.0 mi NE 11.5 mph 21.9 mph N/A   Mostly Cloudy
4:15 AM 32.0 °F 23.0 °F 12.2 °F 44% 30.09 in 10.0 mi NE 11.5 mph 23.0 mph N/A   Partly Cloudy
4:35 AM 32.0 °F 21.6 °F 12.2 °F 44% 30.09 in 10.0 mi NE 15.0 mph 26.5 mph N/A   Clear
4:55 AM 32.0 °F 24.8 °F 14.0 °F 48% 30.09 in 10.0 mi NE 8.1 mph 19.6 mph N/A   Clear
5:15 AM 32.0 °F 24.2 °F 10.4 °F 41% 30.10 in 10.0 mi NE 9.2 mph 25.3 mph N/A   Clear
5:35 AM 32.0 °F 23.6 °F 12.2 °F 44% 30.10 in 10.0 mi NE 10.4 mph 25.3 mph N/A   Clear
5:55 AM 32.0 °F 24.2 °F 12.2 °F 44% 30.10 in 10.0 mi NNE 9.2 mph 19.6 mph N/A   Clear
6:15 AM 33.8 °F 25.3 °F 14.0 °F 44% 30.10 in 10.0 mi NE 11.5 mph 20.7 mph N/A   Clear
6:35 AM 33.8 °F 23.5 °F 14.0 °F 44% 30.10 in 10.0 mi NE 16.1 mph 27.6 mph N/A   Clear
6:55 AM 33.8 °F 24.8 °F 12.2 °F 41% 30.10 in 10.0 mi NNE 12.7 mph 27.6 mph N/A   Clear
7:15 AM 33.8 °F 23.9 °F 12.2 °F 41% 30.11 in 10.0 mi NE 15.0 mph 27.6 mph N/A   Clear
7:35 AM 33.8 °F 23.9 °F 12.2 °F 41% 30.11 in 10.0 mi NNE 15.0 mph 23.0 mph N/A   Clear
7:55 AM 33.8 °F 23.5 °F 12.2 °F 41% 30.12 in 10.0 mi NE 16.1 mph 32.2 mph N/A   Clear
8:15 AM 33.8 °F 27.7 °F 12.2 °F 41% 30.13 in 10.0 mi ENE 6.9 mph 25.3 mph N/A   Clear
8:35 AM 33.8 °F 24.8 °F 12.2 °F 41% 30.14 in 10.0 mi NE 12.7 mph 23.0 mph N/A   Clear
8:55 AM 35.6 °F 28.0 °F 10.4 °F 35% 30.15 in 10.0 mi NE 10.4 mph 18.4 mph N/A   Clear
9:15 AM 35.6 °F 27.5 °F 14.0 °F 41% 30.15 in 10.0 mi NE 11.5 mph 23.0 mph N/A   Clear
9:35 AM 33.8 °F 25.3 °F 14.0 °F 44% 30.16 in 10.0 mi NNE 11.5 mph 17.3 mph N/A   Clear
9:55 AM 33.8 °F 27.7 °F 14.0 °F 44% 30.17 in 10.0 mi NE 6.9 mph - N/A   Clear
10:15 AM 35.6 °F 29.9 °F 14.0 °F 41% 30.17 in 10.0 mi NNE 6.9 mph - N/A   Clear
10:35 AM 35.6 °F 28.0 °F 14.0 °F 41% 30.17 in 10.0 mi NNE 10.4 mph - N/A   Clear
10:55 AM 35.6 °F 29.2 °F 14.0 °F 41% 30.17 in 10.0 mi NNE 8.1 mph 16.1 mph N/A   Clear
11:15 AM 35.6 °F 28.6 °F 12.2 °F 38% 30.16 in 10.0 mi NE 9.2 mph 17.3 mph N/A   Clear
11:35 AM 35.6 °F 28.6 °F 12.2 °F 38% 30.17 in 10.0 mi NE 9.2 mph 16.1 mph N/A   Clear
11:55 AM 35.6 °F 28.0 °F 10.4 °F 35% 30.16 in 10.0 mi NE 10.4 mph 17.3 mph N/A   Clear
12:15 PM 35.6 °F 29.2 °F 10.4 °F 35% 30.16 in 10.0 mi NNE 8.1 mph - N/A   Clear
12:35 PM 37.4 °F 30.8 °F 10.4 °F 33% 30.16 in 10.0 mi NNE 9.2 mph 17.3 mph N/A   Clear
12:55 PM 37.4 °F 30.8 °F 10.4 °F 33% 30.15 in 10.0 mi North 9.2 mph 17.3 mph N/A   Clear
1:15 PM 37.4 °F 31.4 °F 10.4 °F 33% 30.14 in 10.0 mi NE 8.1 mph - N/A   Clear
1:35 PM 37.4 °F 32.1 °F 12.2 °F 36% 30.14 in 10.0 mi NE 6.9 mph 16.1 mph N/A   Clear
1:55 PM 37.4 °F 30.8 °F 10.4 °F 33% 30.14 in 10.0 mi NE 9.2 mph - N/A   Clear
2:15 PM 37.4 °F 31.4 °F 12.2 °F 36% 30.14 in 10.0 mi ENE 8.1 mph - N/A   Clear
2:35 PM 37.4 °F 30.8 °F 12.2 °F 36% 30.14 in 10.0 mi NE 9.2 mph - N/A   Clear
2:55 PM 37.4 °F 32.1 °F 10.4 °F 33% 30.15 in 10.0 mi NE 6.9 mph - N/A   Clear
3:15 PM 37.4 °F 32.1 °F 12.2 °F 36% 30.15 in 10.0 mi NE 6.9 mph - N/A   Clear
3:35 PM 37.4 °F 32.1 °F 12.2 °F 36% 30.15 in 10.0 mi NE 6.9 mph 17.3 mph N/A   Clear
3:55 PM 37.4 °F 30.8 °F 10.4 °F 33% 30.15 in 10.0 mi NE 9.2 mph 17.3 mph N/A   Clear
4:15 PM 37.4 °F 29.3 °F 10.4 °F 33% 30.16 in 10.0 mi ENE 12.7 mph 18.4 mph N/A   Clear
4:35 PM 35.6 °F 29.2 °F 10.4 °F 35% 30.16 in 10.0 mi NE 8.1 mph 16.1 mph N/A   Clear
4:55 PM 35.6 °F 29.9 °F 10.4 °F 35% 30.16 in 10.0 mi NE 6.9 mph 21.9 mph N/A   Clear
5:15 PM 35.6 °F 29.2 °F 10.4 °F 35% 30.17 in 10.0 mi NE 8.1 mph 16.1 mph N/A   Clear
5:35 PM 35.6 °F 28.6 °F 10.4 °F 35% 30.17 in 10.0 mi ENE 9.2 mph 18.4 mph N/A   Clear
5:55 PM 35.6 °F 29.9 °F 10.4 °F 35% 30.18 in 10.0 mi ENE 6.9 mph 19.6 mph N/A   Clear
6:15 PM 35.6 °F 29.9 °F 12.2 °F 38% 30.18 in 10.0 mi ENE 6.9 mph 21.9 mph N/A   Clear
6:35 PM 33.8 °F 26.4 °F 10.4 °F 38% 30.18 in 10.0 mi NE 9.2 mph 16.1 mph N/A   Clear
6:55 PM 33.8 °F 26.4 °F 10.4 °F 38% 30.19 in 10.0 mi NE 9.2 mph 24.2 mph N/A   Clear
7:15 PM 33.8 °F 24.8 °F 10.4 °F 38% 30.19 in 10.0 mi NE 12.7 mph 25.3 mph N/A   Clear
7:35 PM 33.8 °F 25.8 °F 10.4 °F 38% 30.20 in 10.0 mi NE 10.4 mph 21.9 mph N/A   Clear
7:55 PM 32.0 °F 23.6 °F 8.6 °F 38% 30.20 in 10.0 mi NE 10.4 mph 21.9 mph N/A   Clear
8:15 PM 32.0 °F 23.0 °F 10.4 °F 41% 30.21 in 10.0 mi ENE 11.5 mph 24.2 mph N/A   Clear
8:35 PM 32.0 °F 24.2 °F 8.6 °F 38% 30.21 in 10.0 mi NE 9.2 mph 21.9 mph N/A   Clear
8:55 PM 32.0 °F 24.8 °F 8.6 °F 38% 30.22 in 10.0 mi ENE 8.1 mph 18.4 mph N/A   Clear
9:15 PM 32.0 °F 24.2 °F 8.6 °F 38% 30.23 in 10.0 mi NE 9.2 mph 24.2 mph N/A   Clear
9:35 PM 32.0 °F 23.6 °F 8.6 °F 38% 30.23 in 10.0 mi NE 10.4 mph 23.0 mph N/A   Clear
9:55 PM 32.0 °F 27.5 °F 8.6 °F 38% 30.23 in 10.0 mi NE 4.6 mph 16.1 mph N/A   Clear
10:15 PM 32.0 °F 24.2 °F 8.6 °F 38% 30.23 in 10.0 mi NE 9.2 mph 18.4 mph N/A   Clear
10:35 PM 32.0 °F 23.6 °F 8.6 °F 38% 30.24 in 10.0 mi NNE 10.4 mph 19.6 mph N/A   Clear
10:50 PM 32.0 °F 24.8 °F 10.4 °F 41% 30.24 in 10.0 mi ENE 8.1 mph 19.6 mph N/A   Clear
11:15 PM 30.2 °F 20.2 °F 8.6 °F 40% 30.24 in 10.0 mi NE 12.7 mph 34.5 mph N/A   Clear
11:35 PM 30.2 °F 19.8 °F 10.4 °F 44% 30.24 in 10.0 mi NNE 13.8 mph 28.8 mph N/A   Clear
11:55 PM 30.2 °F 20.2 °F 10.4 °F 44% 30.25 in 10.0 mi ENE 12.7 mph 20.7 mph N/A   Clear